Location: L�gaud
(45.7115°N, 1.7775°E)
Time: 12:21:33
(UTC+00:00)

Cosmos 2219 Rocket - Pass Details

Date: 03 March 2021
Orbit: 827 x 848 km, 71.0° (Epoch: 11 April)

Event Time Altitude Azimuth Distance (km) Brightness Sun altitude
Rises 19:23:18 0° 185° (S) 3,351 5.3 -18.3°
Reaches altitude 10° 19:25:48 10° 179° (S) 2,424 4.5 -18.8°
Maximum altitude 19:31:03 45° 108° (ESE) 1,115 2.4 -19.7°
Drops below altitude 10° 19:36:22 10° 37° (NE) 2,450 4.4 -20.6°
Sets 19:38:54 0° 32° (NNE) 3,391 5.2 -21.0°
